Flag for Israel Weather past 2 weeks in Bnei Brak, Israel

Now
72 °F

Sunny.


Feels Like: 76 °F
Forecast: 67 / 89 °F
Wind: 8 mph from Southwest

Location: Dov Airport

Current Time: Apr 28, 2015 at 8:20:32 AM

Latest Report: Apr 28, 2015 at 7:50 AM


Visibility: 10 mi

Pressure: 29.86 "Hg

Humidity: 61%

Dew point: 57 °F

Location of Bnei BrakLocation

Historic Weather in Bnei Brak — Graph

°F

Bnei Brak temperature yesterday

Maximum temperature yesterday: 73 °F (at 12:50 PM)
Minimum temperature yesterday: 61 °F (at 5:00 AM)
Average temperature yesterday: 70 °F

Past Weeks' High & Low Weather Summary

 TemperatureHumidityPressure
High82 °F (Apr 20, 3:50 PM)94% (Apr 17, 5:50 AM)30.24 "Hg (Apr 17, 5:50 AM)
Low54 °F (Apr 25, 6:00 AM)15% (Apr 20, 6:50 PM)29.80 "Hg (Apr 20, 8:50 PM)
Average66 °F65%30.01 "Hg
* Reported Apr 13 6:50 AM — Apr 28 6:50 AM, Bnei Brak, Weather by CustomWeather, © 2015

Note: Actual official high and low records may vary slightly from our data, if they occured in-between our weather recording intervals... More about our weather records

Advertising

Bnei Brak weather history for previous 24 hours

 ConditionsComfort  
Time TempWeatherWind HumidityBarometerVisibility
6:50 AM
Tue, Apr 28
70 °FClear.5 mph43%29.83 "Hg10 mi
5:50 AM70 °FClear.1 mph43%29.80 "Hg10 mi
10:50 PM
Mon, Apr 27
73 °FClear.No wind41%29.83 "Hg10 mi
9:50 PM73 °FClear.2 mph44%29.83 "Hg10 mi
8:50 PM70 °FClear.5 mph69%29.83 "Hg10 mi
7:50 PM70 °FSunny.9 mph78%29.83 "Hg10 mi
6:50 PM72 °FSunny.10 mph73%29.80 "Hg10 mi
5:50 PM73 °FSunny.10 mph69%29.83 "Hg10 mi
4:50 PM73 °FSunny.8 mph65%29.83 "Hg10 mi
3:50 PM73 °FSunny.10 mph65%29.83 "Hg10 mi
2:50 PM73 °FSunny.9 mph65%29.86 "Hg10 mi
1:50 PM73 °FPassing clouds.7 mph65%29.86 "HgN/A
12:50 PM73 °FPassing clouds.6 mph65%29.86 "HgN/A
11:50 AM72 °FSunny.6 mph73%29.89 "Hg10 mi
10:50 AM70 °FSunny.7 mph78%29.89 "Hg10 mi
9:50 AM68 °FSunny.6 mph83%29.89 "Hg10 mi
8:50 AM70 °FSunny.1 mph69%29.89 "Hg10 mi
Weather by CustomWeather, © 2015

See weather overviewHow to use our weather pages